Regional Weather Roundup
Issued by NWS Portland, ME

Home | Current Version | Previous Version | Text Only | Print | Product List | Glossary On
Versions: 1 2 3 4 5 6 7 8 9 10 11 12 13 14 15 16 17 18 19 20 21 22 23 24 25 26 27 28 29 30 31 32 33 34 35 36 37 38 39 40 41 42 43 44 45 46 47 48 49 50
000
ASUS41 KGYX 241710
RWRGYX
WEATHER ROUNDUP FOR MAINE AND NEW HAMPSHIRE
NATIONAL WEATHER SERVICE GRAY ME
100 PM EDT SAT JUN 24 2017

MEZ002-005-006-010-012-015-018-020-021-024-026-027-029-241800-
MAINE

CITY           SKY/WX    TMP DP  RH WIND       PRES   REMARKS
PORTLAND       CLOUDY    80  67  64 W7        29.54R
SANFORD        CLOUDY    81  69  67 W8G18     29.56R
BAR HARBOR     PTSUNNY   69  66  90 SW12      29.52S
WISCASSET      CLOUDY    77  69  76 VRB3      29.54R
ROCKLAND       PTSUNNY   78  69  73 SW10      29.52F
FRYEBURG       LGT RAIN  70  66  87 W5        29.59R
LEWISTONAUBURN CLOUDY    78  69  73 NW9       29.55R
AUGUSTA        CLOUDY    76  68  76 VRB7      29.54R
WATERVILLE     CLOUDY    75  70  84 VRB6      29.51R
BANGOR         CLOUDY    77  68  73 W10       29.51R
GREENVILLE       N/A     68  61  78 VRB6      29.54R
MILLINOCKET    CLOUDY    73  66  78 W7        29.50R
HOULTON        CLOUDY    72  70  93 S8        29.44R
PRESQUE ISLE   CLOUDY    66  62  87 NW9       29.48R
FRENCHVILLE    MOSUNNY   67  58  72 NW9       29.46R
CARIBOU        CLOUDY    67  60  78 NW12      29.45R
$$

NHZ002-005-008-009-011-012-014-241800-
NEW HAMPSHIRE

CITY           SKY/WX    TMP DP  RH WIND       PRES   REMARKS
PORTSMOUTH     PTSUNNY   84  67  57 W13       29.54R
ROCHESTER      CLOUDY    80  67  64 VRB6      29.55R
NASHUA         CLOUDY    81  67  62 NW17      29.59R
MANCHESTER     CLOUDY    80  67  64 NW6       29.57R
CONCORD        CLOUDY    83  67  58 NW13G21   29.58R
LACONIA        CLOUDY   N/A N/A N/A W10G18    29.59R
PLYMOUTH       FAIR      73  63  70 W3        29.60R
BERLIN         MOSUNNY   76  57  51 W9G17     29.61R
WHITEFIELD     MOSUNNY   75  59  57 NW10G21   29.62R
JAFFREY        MOSUNNY   79  65  62 VRB7      29.64R
KEENE          MOSUNNY   79  65  62 VRB7G17   29.62R
LEBANON        PTSUNNY   79  60  52 VRB7G16   29.61R
MT WASHINGTON  FOG       50  50 100 W58G66      N/A  VSB 0
$$

VTZ005-007-008-241800-
VERMONT

CITY           SKY/WX    TMP DP  RH WIND       PRES   REMARKS
ST JOHNSBURY     N/A     77  59  53 MISG      29.60R
MONTPELIER     SUNNY     74  59  59 NW14G23   29.68R
BURLINGTON     MOSUNNY   79  58  48 N8        29.62S
$$

MAZ007-012-024-CTZ003-RIZ002-NYZ038-NYZ072-241800-
SOUTHERN NEW ENGLAND AND NY

CITY           SKY/WX    TMP DP  RH WIND       PRES   REMARKS
BOSTON         CLOUDY    76  71  85 SW10      29.56F
WORCESTER      SUNNY     76  63  64 W14G28    29.64R
NANTUCKET      CLOUDY    66  65  96 SW18      29.61F FOG
PROVIDENCE     LGT RAIN  76  68  76 NW8       29.60R
HARTFORD       MOSUNNY   84  59  42 W20G28    29.65R
ALBANY         MOSUNNY   79  59  50 NW22G30   29.69R
NEW YORK CITY  MOSUNNY   83  56  39 NW18G31   29.70R
$$

ANZ081-ANZ082-ANZ150-NHZ014-MEZ023>029-241800-
COASTAL MARINE OBSERVATIONS

STATION/POSITION TIME  TEMP    WIND        PRES    WAVE
                       AIR SEA DIR/SP/G            HT/PER
                 (UTC) (F)     (DEG/KT/KT) (MB)    (FT/S)
MATINICUS ROCK   1700   61     220/ 16/ 17 1000.1R
ISLE OF SHOALS   1700   72     200/ 19/ 19 1000.2R
JEFFREYS LEDGE   1606      60                N/A     3/ 6
CASHES LEDGE BUO 1550   64 59              1000.4    6/ 6
GEORGES BANK BUO 1550   62 54              1006.4    6/ 7
$$

.............KEY..............
   WCI - WIND CHILL
   TC  - TEMPERATURE IN CELSIUS
   VSB - VISIBILITY IN MILES
   HX  - HEAT INDEX
   FAIR- INDICATES FEW OR NO CLOUDS BELOW 12,000 FT, WITH NO
         SIGNIFICANT WEATHER AND/OR OBSTRUCTIONS TO VISIBILITY.





USA.gov is the U.S. government's official web portal to all federal, state and local government web resources and services.